Time,TemperatureF,DewpointF,PressureIn,WindDirection,WindDirectionDegrees,WindSpeedMPH,WindSpeedGustMPH,Humidity,HourlyPrecipIn,Conditions,Clouds,dailyrainin,SolarRadiationWatts/m^2,SoftwareType,DateUTC
2013-05-30 00:01:00,65.4,50.8,29.84,WNW,294,0.0,5.0,59,0.00,,,0.00,0.0,WUHU216DAVISVP2,2013-05-30 07:01:00,
2013-05-30 00:06:00,65.2,50.7,29.84,WNW,294,1.0,4.0,59,0.00,,,0.00,0.0,WUHU216DAVISVP2,2013-05-30 07:06:00,
2013-05-30 00:11:00,65.0,50.9,29.84,WNW,294,2.0,4.0,60,0.00,,,0.00,0.0,WUHU216DAVISVP2,2013-05-30 07:11:00,
2013-05-30 00:16:00,64.9,51.3,29.84,WNW,294,3.0,4.0,61,0.00,,,0.00,0.0,WUHU216DAVISVP2,2013-05-30 07:16:00,
2013-05-30 00:21:00,64.9,51.3,29.84,WNW,294,3.0,4.0,61,0.00,,,0.00,0.0,WUHU216DAVISVP2,2013-05-30 07:21:00,
2013-05-30 00:26:00,64.9,51.7,29.84,WNW,294,2.0,5.0,62,0.00,,,0.00,0.0,WUHU216DAVISVP2,2013-05-30 07:26:00,
2013-05-30 00:31:00,64.8,51.5,29.84,WNW,294,3.0,5.0,62,0.00,,,0.00,0.0,WUHU216DAVISVP2,2013-05-30 07:31:00,
2013-05-30 00:36:00,64.8,51.9,29.84,WNW,288,4.0,6.0,63,0.00,,,0.00,0.0,WUHU216DAVISVP2,2013-05-30 07:36:00,
2013-05-30 00:41:00,64.8,52.1,29.84,WNW,296,1.0,6.0,63,0.00,,,0.00,0.0,WUHU216DAVISVP2,2013-05-30 07:41:00,
2013-05-30 00:46:00,64.7,52.0,29.84,WNW,296,3.0,6.0,63,0.00,,,0.00,0.0,WUHU216DAVISVP2,2013-05-30 07:46:00,
2013-05-30 00:51:00,64.5,52.2,29.84,WNW,296,4.0,6.0,64,0.00,,,0.00,0.0,WUHU216DAVISVP2,2013-05-30 07:51:00,
2013-05-30 00:56:00,64.5,52.2,29.84,WNW,302,4.0,6.0,64,0.00,,,0.00,0.0,WUHU216DAVISVP2,2013-05-30 07:56:00,
2013-05-30 01:01:00,64.4,52.1,29.84,WNW,292,3.0,7.0,64,0.00,,,0.00,0.0,WUHU216DAVISVP2,2013-05-30 08:01:00,
2013-05-30 01:06:00,64.3,52.4,29.84,WNW,282,6.0,8.0,65,0.00,,,0.00,0.0,WUHU216DAVISVP2,2013-05-30 08:06:00,
2013-05-30 01:11:00,64.1,52.3,29.84,NW,311,4.0,8.0,65,0.00,,,0.00,0.0,WUHU216DAVISVP2,2013-05-30 08:11:00,
2013-05-30 01:16:00,64.0,52.0,29.84,NW,304,5.0,8.0,65,0.00,,,0.00,0.0,WUHU216DAVISVP2,2013-05-30 08:16:00,
2013-05-30 01:21:00,64.0,52.0,29.84,WNW,292,6.0,8.0,65,0.00,,,0.00,0.0,WUHU216DAVISVP2,2013-05-30 08:21:00,
2013-05-30 01:26:00,63.8,51.8,29.84,West,275,6.0,8.0,65,0.00,,,0.00,0.0,WUHU216DAVISVP2,2013-05-30 08:26:00,
2013-05-30 01:31:00,63.5,52.1,29.84,NW,304,3.0,7.0,66,0.00,,,0.00,0.0,WUHU216DAVISVP2,2013-05-30 08:31:00,
2013-05-30 01:36:00,63.3,51.9,29.85,WNW,299,2.0,7.0,66,0.00,,,0.00,0.0,WUHU216DAVISVP2,2013-05-30 08:36:00,
2013-05-30 01:41:00,63.2,51.8,29.85,WNW,299,4.0,7.0,66,0.00,,,0.00,0.0,WUHU216DAVISVP2,2013-05-30 08:41:00,
2013-05-30 01:46:00,63.1,52.1,29.85,WNW,299,2.0,7.0,67,0.00,,,0.00,0.0,WUHU216DAVISVP2,2013-05-30 08:46:00,
2013-05-30 01:51:00,63.0,52.0,29.85,WNW,299,4.0,5.0,67,0.00,,,0.00,0.0,WUHU216DAVISVP2,2013-05-30 08:51:00,
2013-05-30 01:56:00,62.8,51.8,29.85,WNW,299,2.0,5.0,67,0.00,,,0.00,0.0,WUHU216DAVISVP2,2013-05-30 08:56:00,
2013-05-30 02:01:00,62.6,51.6,29.85,WNW,299,2.0,4.0,67,0.00,,,0.00,0.0,WUHU216DAVISVP2,2013-05-30 09:01:00,
2013-05-30 02:06:00,62.5,51.5,29.85,WNW,299,4.0,5.0,67,0.00,,,0.00,0.0,WUHU216DAVISVP2,2013-05-30 09:06:00,
2013-05-30 02:11:00,62.4,51.0,29.84,WNW,299,3.0,5.0,66,0.00,,,0.00,0.0,WUHU216DAVISVP2,2013-05-30 09:11:00,
2013-05-30 02:16:00,62.3,50.8,29.85,WNW,299,0.0,5.0,66,0.00,,,0.00,0.0,WUHU216DAVISVP2,2013-05-30 09:16:00,
2013-05-30 02:21:00,62.2,50.3,29.85,WNW,299,0.0,5.0,65,0.00,,,0.00,0.0,WUHU216DAVISVP2,2013-05-30 09:21:00,
2013-05-30 02:26:00,62.1,50.2,29.84,WNW,299,2.0,5.0,65,0.00,,,0.00,0.0,WUHU216DAVISVP2,2013-05-30 09:26:00,
2013-05-30 02:31:00,62.0,49.7,29.85,WNW,299,2.0,4.0,64,0.00,,,0.00,0.0,WUHU216DAVISVP2,2013-05-30 09:31:00,
2013-05-30 02:36:00,61.9,49.6,29.85,WNW,299,0.0,3.0,64,0.00,,,0.00,0.0,WUHU216DAVISVP2,2013-05-30 09:36:00,
2013-05-30 02:41:00,61.7,49.4,29.85,WNW,299,2.0,3.0,64,0.00,,,0.00,0.0,WUHU216DAVISVP2,2013-05-30 09:41:00,
2013-05-30 02:46:00,61.6,49.7,29.85,WNW,299,1.0,4.0,65,0.00,,,0.00,0.0,WUHU216DAVISVP2,2013-05-30 09:46:00,
2013-05-30 02:51:00,61.4,49.1,29.84,WNW,299,2.0,4.0,64,0.00,,,0.00,0.0,WUHU216DAVISVP2,2013-05-30 09:51:00,
2013-05-30 02:56:00,61.3,49.2,29.84,WNW,299,0.0,4.0,64,0.00,,,0.00,0.0,WUHU216DAVISVP2,2013-05-30 09:56:00,
2013-05-30 03:01:00,61.2,49.1,29.84,WNW,299,0.0,4.0,64,0.00,,,0.00,0.0,WUHU216DAVISVP2,2013-05-30 10:01:00,
2013-05-30 03:06:00,61.1,49.0,29.84,WNW,299,0.0,4.0,64,0.00,,,0.00,0.0,WUHU216DAVISVP2,2013-05-30 10:06:00,
2013-05-30 03:11:00,60.9,48.8,29.84,WNW,299,0.0,2.0,64,0.00,,,0.00,0.0,WUHU216DAVISVP2,2013-05-30 10:11:00,
2013-05-30 03:16:00,60.8,48.7,29.85,WNW,299,2.0,2.0,64,0.00,,,0.00,0.0,WUHU216DAVISVP2,2013-05-30 10:16:00,
2013-05-30 03:21:00,60.6,48.5,29.84,WNW,299,3.0,3.0,64,0.00,,,0.00,0.0,WUHU216DAVISVP2,2013-05-30 10:21:00,
2013-05-30 03:26:00,60.5,48.4,29.84,WNW,299,1.0,3.0,64,0.00,,,0.00,0.0,WUHU216DAVISVP2,2013-05-30 10:26:00,
2013-05-30 03:31:00,60.4,47.9,29.84,WNW,299,2.0,4.0,63,0.00,,,0.00,0.0,WUHU216DAVISVP2,2013-05-30 10:31:00,
2013-05-30 03:36:00,60.3,47.8,29.84,WNW,299,0.0,4.0,63,0.00,,,0.00,0.0,WUHU216DAVISVP2,2013-05-30 10:36:00,
2013-05-30 03:41:00,60.2,47.7,29.85,WNW,299,0.0,4.0,63,0.00,,,0.00,0.0,WUHU216DAVISVP2,2013-05-30 10:41:00,
2013-05-30 03:46:00,60.1,47.6,29.85,WNW,299,1.0,4.0,63,0.00,,,0.00,0.0,WUHU216DAVISVP2,2013-05-30 10:46:00,
2013-05-30 03:51:00,60.0,47.9,29.85,WNW,299,0.0,3.0,64,0.00,,,0.00,0.0,WUHU216DAVISVP2,2013-05-30 10:51:00,
2013-05-30 03:56:00,59.9,47.4,29.85,WNW,299,0.0,2.0,63,0.00,,,0.00,0.0,WUHU216DAVISVP2,2013-05-30 10:56:00,
2013-05-30 04:01:00,59.9,47.4,29.85,WNW,299,1.0,2.0,63,0.00,,,0.00,0.0,WUHU216DAVISVP2,2013-05-30 11:01:00,
2013-05-30 04:06:00,59.9,47.4,29.85,WNW,299,0.0,2.0,63,0.00,,,0.00,0.0,WUHU216DAVISVP2,2013-05-30 11:06:00,
2013-05-30 04:11:00,59.9,47.4,29.85,WNW,299,0.0,2.0,63,0.00,,,0.00,0.0,WUHU216DAVISVP2,2013-05-30 11:11:00,
2013-05-30 04:16:00,60.0,47.5,29.85,WNW,299,0.0,2.0,63,0.00,,,0.00,0.0,WUHU216DAVISVP2,2013-05-30 11:16:00,
2013-05-30 04:21:00,60.1,47.6,29.85,WNW,299,0.0,2.0,63,0.00,,,0.00,0.0,WUHU216DAVISVP2,2013-05-30 11:21:00,
2013-05-30 04:26:00,59.8,47.2,29.85,WNW,299,0.0,2.0,63,0.00,,,0.00,0.0,WUHU216DAVISVP2,2013-05-30 11:26:00,
2013-05-30 04:31:00,59.6,47.6,29.85,WNW,299,0.0,1.0,64,0.00,,,0.00,0.0,WUHU216DAVISVP2,2013-05-30 11:31:00,
2013-05-30 04:36:00,59.3,47.3,29.85,WNW,299,0.0,1.0,64,0.00,,,0.00,0.0,WUHU216DAVISVP2,2013-05-30 11:36:00,
2013-05-30 04:41:00,59.1,47.5,29.85,WNW,299,0.0,2.0,65,0.00,,,0.00,0.0,WUHU216DAVISVP2,2013-05-30 11:41:00,
2013-05-30 04:46:00,59.0,47.2,29.85,WNW,299,0.0,2.0,65,0.00,,,0.00,0.0,WUHU216DAVISVP2,2013-05-30 11:46:00,
2013-05-30 04:51:00,59.0,47.2,29.85,WNW,299,0.0,2.0,65,0.00,,,0.00,0.0,WUHU216DAVISVP2,2013-05-30 11:51:00,
2013-05-30 04:56:00,59.0,47.7,29.85,WNW,299,0.0,2.0,66,0.00,,,0.00,0.0,WUHU216DAVISVP2,2013-05-30 11:56:00,
2013-05-30 05:01:00,58.9,47.7,29.85,WNW,299,0.0,1.0,66,0.00,,,0.00,0.0,WUHU216DAVISVP2,2013-05-30 12:01:00,
2013-05-30 05:06:00,58.7,47.9,29.85,WNW,299,0.0,1.0,67,0.00,,,0.00,0.0,WUHU216DAVISVP2,2013-05-30 12:06:00,
2013-05-30 05:11:00,58.6,47.7,29.85,WNW,299,0.0,1.0,67,0.00,,,0.00,0.0,WUHU216DAVISVP2,2013-05-30 12:11:00,
2013-05-30 05:16:00,58.5,47.7,29.85,WNW,299,0.0,1.0,67,0.00,,,0.00,0.0,WUHU216DAVISVP2,2013-05-30 12:16:00,
2013-05-30 05:21:00,58.3,47.9,29.85,WNW,299,0.0,2.0,68,0.00,,,0.00,0.0,WUHU216DAVISVP2,2013-05-30 12:21:00,
2013-05-30 05:26:00,58.3,47.9,29.85,WNW,299,0.0,2.0,68,0.00,,,0.00,0.0,WUHU216DAVISVP2,2013-05-30 12:26:00,
2013-05-30 05:31:00,58.2,47.8,29.85,WNW,299,0.0,2.0,68,0.00,,,0.00,0.0,WUHU216DAVISVP2,2013-05-30 12:31:00,
2013-05-30 05:36:00,58.2,47.8,29.85,WNW,299,0.0,2.0,68,0.00,,,0.00,0.0,WUHU216DAVISVP2,2013-05-30 12:36:00,
2013-05-30 05:41:00,58.2,47.8,29.85,WNW,299,0.0,1.0,68,0.00,,,0.00,0.0,WUHU216DAVISVP2,2013-05-30 12:41:00,
2013-05-30 05:46:00,58.2,48.2,29.86,WNW,299,0.0,1.0,69,0.00,,,0.00,5.0,WUHU216DAVISVP2,2013-05-30 12:46:00,
2013-05-30 05:51:00,58.1,48.1,29.86,WNW,299,0.0,1.0,69,0.00,,,0.00,7.0,WUHU216DAVISVP2,2013-05-30 12:51:00,
2013-05-30 05:56:00,58.0,48.0,29.86,WNW,299,0.0,0.0,69,0.00,,,0.00,11.0,WUHU216DAVISVP2,2013-05-30 12:56:00,
2013-05-30 06:01:00,57.9,48.3,29.86,WNW,299,0.0,1.0,70,0.00,,,0.00,14.0,WUHU216DAVISVP2,2013-05-30 13:01:00,
2013-05-30 06:06:00,58.0,48.4,29.86,WNW,299,0.0,1.0,70,0.00,,,0.00,18.0,WUHU216DAVISVP2,2013-05-30 13:06:00,
2013-05-30 06:11:00,58.2,48.6,29.86,WNW,299,0.0,1.0,70,0.00,,,0.00,19.0,WUHU216DAVISVP2,2013-05-30 13:11:00,
2013-05-30 06:16:00,58.4,48.4,29.86,WNW,299,0.0,1.0,69,0.00,,,0.00,37.0,WUHU216DAVISVP2,2013-05-30 13:16:00,
2013-05-30 06:21:00,58.6,47.8,29.86,WNW,299,3.0,4.0,67,0.00,,,0.00,62.0,WUHU216DAVISVP2,2013-05-30 13:21:00,
2013-05-30 06:26:00,58.8,47.6,29.87,WNW,298,2.0,4.0,66,0.00,,,0.00,76.0,WUHU216DAVISVP2,2013-05-30 13:26:00,
2013-05-30 06:31:00,59.0,47.8,29.87,WNW,298,2.0,4.0,66,0.00,,,0.00,91.0,WUHU216DAVISVP2,2013-05-30 13:31:00,
2013-05-30 06:36:00,59.3,47.5,29.87,WNW,298,3.0,4.0,65,0.00,,,0.00,109.0,WUHU216DAVISVP2,2013-05-30 13:36:00,
2013-05-30 06:41:00,59.4,47.6,29.87,WNW,298,0.0,4.0,65,0.00,,,0.00,127.0,WUHU216DAVISVP2,2013-05-30 13:41:00,
2013-05-30 06:46:00,59.7,47.5,29.88,WNW,298,1.0,4.0,64,0.00,,,0.00,141.0,WUHU216DAVISVP2,2013-05-30 13:46:00,
2013-05-30 06:51:00,59.9,47.7,29.88,WNW,298,0.0,4.0,64,0.00,,,0.00,155.0,WUHU216DAVISVP2,2013-05-30 13:51:00,
2013-05-30 06:56:00,60.2,48.1,29.88,WNW,298,0.0,4.0,64,0.00,,,0.00,169.0,WUHU216DAVISVP2,2013-05-30 13:56:00,
2013-05-30 07:01:00,60.5,48.0,29.88,WNW,298,0.0,4.0,63,0.00,,,0.00,181.0,WUHU216DAVISVP2,2013-05-30 14:01:00,
2013-05-30 07:06:00,60.8,47.8,29.88,WNW,298,0.0,4.0,62,0.00,,,0.00,202.0,WUHU216DAVISVP2,2013-05-30 14:06:00,
2013-05-30 07:11:00,61.2,48.2,29.88,WNW,298,1.0,4.0,62,0.00,,,0.00,218.0,WUHU216DAVISVP2,2013-05-30 14:11:00,
2013-05-30 07:16:00,61.6,48.2,29.88,WNW,298,0.0,4.0,61,0.00,,,0.00,236.0,WUHU216DAVISVP2,2013-05-30 14:16:00,
2013-05-30 07:21:00,62.0,48.1,29.88,WNW,298,0.0,4.0,60,0.00,,,0.00,248.0,WUHU216DAVISVP2,2013-05-30 14:21:00,
2013-05-30 07:26:00,62.4,48.5,29.88,WNW,298,0.0,2.0,60,0.00,,,0.00,264.0,WUHU216DAVISVP2,2013-05-30 14:26:00,
2013-05-30 07:31:00,62.8,48.4,29.88,WNW,298,0.0,2.0,59,0.00,,,0.00,279.0,WUHU216DAVISVP2,2013-05-30 14:31:00,
2013-05-30 07:36:00,63.3,48.4,29.89,WNW,298,0.0,2.0,58,0.00,,,0.00,295.0,WUHU216DAVISVP2,2013-05-30 14:36:00,
2013-05-30 07:41:00,64.0,49.1,29.89,WNW,298,0.0,2.0,58,0.00,,,0.00,313.0,WUHU216DAVISVP2,2013-05-30 14:41:00,
2013-05-30 07:46:00,64.7,49.7,29.89,WNW,298,0.0,2.0,58,0.00,,,0.00,329.0,WUHU216DAVISVP2,2013-05-30 14:46:00,
2013-05-30 07:51:00,65.4,49.9,29.89,WNW,299,0.0,2.0,57,0.00,,,0.00,345.0,WUHU216DAVISVP2,2013-05-30 14:51:00,
2013-05-30 07:56:00,65.8,49.8,29.89,WNW,299,1.0,2.0,56,0.00,,,0.00,341.0,WUHU216DAVISVP2,2013-05-30 14:56:00,
2013-05-30 08:01:00,65.9,49.9,29.89,WNW,299,0.0,3.0,56,0.00,,,0.00,378.0,WUHU216DAVISVP2,2013-05-30 15:01:00,
2013-05-30 08:06:00,66.2,50.2,29.90,WNW,299,2.0,4.0,56,0.00,,,0.00,396.0,WUHU216DAVISVP2,2013-05-30 15:06:00,
2013-05-30 08:11:00,65.8,50.3,29.90,WNW,299,1.0,4.0,57,0.00,,,0.00,413.0,WUHU216DAVISVP2,2013-05-30 15:11:00,
2013-05-30 08:16:00,65.6,50.1,29.90,WNW,299,4.0,4.0,57,0.00,,,0.00,373.0,WUHU216DAVISVP2,2013-05-30 15:16:00,
2013-05-30 08:21:00,65.7,50.7,29.90,WNW,299,0.0,4.0,58,0.00,,,0.00,439.0,WUHU216DAVISVP2,2013-05-30 15:21:00,
2013-05-30 08:26:00,65.9,50.8,29.90,WNW,299,1.0,4.0,58,0.00,,,0.00,455.0,WUHU216DAVISVP2,2013-05-30 15:26:00,
2013-05-30 08:31:00,66.4,50.8,29.90,WNW,299,1.0,4.0,57,0.00,,,0.00,469.0,WUHU216DAVISVP2,2013-05-30 15:31:00,
2013-05-30 08:36:00,66.7,50.6,29.90,WNW,299,0.0,4.0,56,0.00,,,0.00,489.0,WUHU216DAVISVP2,2013-05-30 15:36:00,
2013-05-30 08:41:00,67.4,51.3,29.90,WNW,299,0.0,4.0,56,0.00,,,0.00,501.0,WUHU216DAVISVP2,2013-05-30 15:41:00,
2013-05-30 08:46:00,68.1,50.9,29.89,WSW,254,1.0,4.0,54,0.00,,,0.00,520.0,WUHU216DAVISVP2,2013-05-30 15:46:00,
2013-05-30 08:51:00,68.0,50.3,29.90,WSW,254,3.0,4.0,53,0.00,,,0.00,534.0,WUHU216DAVISVP2,2013-05-30 15:51:00,
2013-05-30 08:56:00,68.0,50.8,29.90,WSW,254,0.0,4.0,54,0.00,,,0.00,554.0,WUHU216DAVISVP2,2013-05-30 15:56:00,
2013-05-30 09:01:00,68.7,51.0,29.90,WSW,254,0.0,4.0,53,0.00,,,0.00,561.0,WUHU216DAVISVP2,2013-05-30 16:01:00,
2013-05-30 09:06:00,68.9,51.2,29.90,SW,223,2.0,4.0,53,0.00,,,0.00,563.0,WUHU216DAVISVP2,2013-05-30 16:06:00,
2013-05-30 09:11:00,68.7,50.4,29.90,SW,224,3.0,4.0,52,0.00,,,0.00,591.0,WUHU216DAVISVP2,2013-05-30 16:11:00,
2013-05-30 09:16:00,68.5,50.3,29.90,SSW,201,1.0,6.0,52,0.00,,,0.00,608.0,WUHU216DAVISVP2,2013-05-30 16:16:00,
2013-05-30 09:21:00,68.9,51.7,29.90,South,188,0.0,6.0,54,0.00,,,0.00,633.0,WUHU216DAVISVP2,2013-05-30 16:21:00,
2013-05-30 09:26:00,69.9,51.6,29.90,SE,142,3.0,6.0,52,0.00,,,0.00,622.0,WUHU216DAVISVP2,2013-05-30 16:26:00,
2013-05-30 09:31:00,70.2,51.8,29.90,SE,126,1.0,6.0,52,0.00,,,0.00,633.0,WUHU216DAVISVP2,2013-05-30 16:31:00,
2013-05-30 09:36:00,70.6,52.2,29.90,SE,126,0.0,4.0,52,0.00,,,0.00,670.0,WUHU216DAVISVP2,2013-05-30 16:36:00,
2013-05-30 09:41:00,70.6,51.7,29.90,SW,219,2.0,5.0,51,0.00,,,0.00,679.0,WUHU216DAVISVP2,2013-05-30 16:41:00,
2013-05-30 09:46:00,70.5,51.5,29.90,SSW,200,0.0,5.0,51,0.00,,,0.00,686.0,WUHU216DAVISVP2,2013-05-30 16:46:00,
2013-05-30 09:51:00,70.8,51.2,29.90,SSW,194,3.0,5.0,50,0.00,,,0.00,694.0,WUHU216DAVISVP2,2013-05-30 16:51:00,
2013-05-30 09:56:00,71.2,51.6,29.90,East,94,2.0,5.0,50,0.00,,,0.00,707.0,WUHU216DAVISVP2,2013-05-30 16:56:00,
2013-05-30 10:01:00,71.4,51.8,29.90,WSW,246,1.0,5.0,50,0.00,,,0.00,717.0,WUHU216DAVISVP2,2013-05-30 17:01:00,
2013-05-30 10:06:00,71.8,52.2,29.90,SE,145,3.0,5.0,50,0.00,,,0.00,729.0,WUHU216DAVISVP2,2013-05-30 17:06:00,
2013-05-30 10:11:00,71.6,52.0,29.90,SSE,167,2.0,7.0,50,0.00,,,0.00,751.0,WUHU216DAVISVP2,2013-05-30 17:11:00,
2013-05-30 10:16:00,72.3,52.1,29.90,South,187,4.0,7.0,49,0.00,,,0.00,652.0,WUHU216DAVISVP2,2013-05-30 17:16:00,
2013-05-30 10:21:00,72.3,52.1,29.90,South,183,1.0,7.0,49,0.00,,,0.00,770.0,WUHU216DAVISVP2,2013-05-30 17:21:00,
2013-05-30 10:26:00,72.6,51.8,29.89,South,183,0.0,6.0,48,0.00,,,0.00,788.0,WUHU216DAVISVP2,2013-05-30 17:26:00,
2013-05-30 10:31:00,73.1,52.3,29.89,South,186,1.0,6.0,48,0.00,,,0.00,744.0,WUHU216DAVISVP2,2013-05-30 17:31:00,
2013-05-30 10:36:00,73.6,52.7,29.89,South,180,0.0,4.0,48,0.00,,,0.00,789.0,WUHU216DAVISVP2,2013-05-30 17:36:00,
2013-05-30 10:41:00,73.9,53.6,29.89,South,180,2.0,4.0,49,0.00,,,0.00,805.0,WUHU216DAVISVP2,2013-05-30 17:41:00,
2013-05-30 10:46:00,74.8,53.2,29.89,ESE,117,3.0,7.0,47,0.00,,,0.00,812.0,WUHU216DAVISVP2,2013-05-30 17:46:00,
2013-05-30 10:51:00,74.4,54.1,29.89,ESE,123,3.0,7.0,49,0.00,,,0.00,824.0,WUHU216DAVISVP2,2013-05-30 17:51:00,
2013-05-30 10:56:00,74.4,52.9,29.89,SE,139,3.0,7.0,47,0.00,,,0.00,831.0,WUHU216DAVISVP2,2013-05-30 17:56:00,
2013-05-30 11:01:00,74.5,53.6,29.89,SSE,159,2.0,7.0,48,0.00,,,0.00,846.0,WUHU216DAVISVP2,2013-05-30 18:01:00,
2013-05-30 11:06:00,74.8,53.8,29.89,SE,138,4.0,7.0,48,0.00,,,0.00,833.0,WUHU216DAVISVP2,2013-05-30 18:06:00,
2013-05-30 11:11:00,75.2,53.0,29.89,South,190,1.0,7.0,46,0.00,,,0.00,856.0,WUHU216DAVISVP2,2013-05-30 18:11:00,
2013-05-30 11:16:00,75.6,53.4,29.89,WSW,250,4.0,7.0,46,0.00,,,0.00,860.0,WUHU216DAVISVP2,2013-05-30 18:16:00,
2013-05-30 11:21:00,75.4,53.2,29.89,SSW,194,1.0,7.0,46,0.00,,,0.00,868.0,WUHU216DAVISVP2,2013-05-30 18:21:00,
2013-05-30 11:26:00,75.8,52.9,29.89,SW,217,0.0,7.0,45,0.00,,,0.00,870.0,WUHU216DAVISVP2,2013-05-30 18:26:00,
2013-05-30 11:31:00,76.3,53.4,29.89,South,184,1.0,7.0,45,0.00,,,0.00,879.0,WUHU216DAVISVP2,2013-05-30 18:31:00,
2013-05-30 11:36:00,76.7,53.8,29.89,SW,219,3.0,7.0,45,0.00,,,0.00,888.0,WUHU216DAVISVP2,2013-05-30 18:36:00,
2013-05-30 11:41:00,76.4,53.5,29.89,WSW,240,3.0,9.0,45,0.00,,,0.00,893.0,WUHU216DAVISVP2,2013-05-30 18:41:00,
2013-05-30 11:46:00,76.9,54.6,29.89,WSW,244,0.0,9.0,46,0.00,,,0.00,907.0,WUHU216DAVISVP2,2013-05-30 18:46:00,
2013-05-30 11:51:00,78.0,53.7,29.89,SW,214,2.0,9.0,43,0.00,,,0.00,905.0,WUHU216DAVISVP2,2013-05-30 18:51:00,
2013-05-30 11:56:00,78.7,53.6,29.89,South,171,0.0,7.0,42,0.00,,,0.00,912.0,WUHU216DAVISVP2,2013-05-30 18:56:00,
2013-05-30 12:01:00,79.0,54.6,29.89,West,277,4.0,7.0,43,0.00,,,0.00,912.0,WUHU216DAVISVP2,2013-05-30 19:01:00,
2013-05-30 12:06:00,78.4,54.0,29.89,SW,226,1.0,7.0,43,0.00,,,0.00,912.0,WUHU216DAVISVP2,2013-05-30 19:06:00,
2013-05-30 12:11:00,78.5,54.1,29.89,ESE,110,1.0,7.0,43,0.00,,,0.00,918.0,WUHU216DAVISVP2,2013-05-30 19:11:00,
2013-05-30 12:16:00,79.4,54.3,29.89,NW,305,3.0,7.0,42,0.00,,,0.00,925.0,WUHU216DAVISVP2,2013-05-30 19:16:00,
2013-05-30 12:21:00,79.7,54.5,29.88,NW,317,1.0,7.0,42,0.00,,,0.00,919.0,WUHU216DAVISVP2,2013-05-30 19:21:00,
2013-05-30 12:26:00,79.9,54.7,29.88,North,349,1.0,8.0,42,0.00,,,0.00,898.0,WUHU216DAVISVP2,2013-05-30 19:26:00,
2013-05-30 12:31:00,80.5,55.3,29.88,NNW,327,4.0,8.0,42,0.00,,,0.00,921.0,WUHU216DAVISVP2,2013-05-30 19:31:00,
2013-05-30 12:36:00,79.8,54.6,29.88,NW,313,1.0,8.0,42,0.00,,,0.00,923.0,WUHU216DAVISVP2,2013-05-30 19:36:00,
2013-05-30 12:41:00,79.9,54.7,29.88,NNW,329,1.0,8.0,42,0.00,,,0.00,925.0,WUHU216DAVISVP2,2013-05-30 19:41:00,
2013-05-30 12:46:00,80.4,55.2,29.88,WNW,300,3.0,8.0,42,0.00,,,0.00,926.0,WUHU216DAVISVP2,2013-05-30 19:46:00,
2013-05-30 12:51:00,80.0,53.4,29.88,West,261,2.0,9.0,40,0.00,,,0.00,930.0,WUHU216DAVISVP2,2013-05-30 19:51:00,
2013-05-30 12:56:00,79.7,53.9,29.88,NNW,338,4.0,9.0,41,0.00,,,0.00,926.0,WUHU216DAVISVP2,2013-05-30 19:56:00,
2013-05-30 13:01:00,79.6,53.1,29.88,NNE,19,2.0,9.0,40,0.00,,,0.00,930.0,WUHU216DAVISVP2,2013-05-30 20:01:00,
2013-05-30 13:06:00,80.1,54.9,29.87,WNW,288,5.0,9.0,42,0.00,,,0.00,925.0,WUHU216DAVISVP2,2013-05-30 20:06:00,
2013-05-30 13:11:00,80.3,55.1,29.87,NW,312,5.0,8.0,42,0.00,,,0.00,928.0,WUHU216DAVISVP2,2013-05-30 20:11:00,
2013-05-30 13:16:00,80.2,55.0,29.87,WNW,288,1.0,8.0,42,0.00,,,0.00,925.0,WUHU216DAVISVP2,2013-05-30 20:16:00,
2013-05-30 13:21:00,80.6,56.0,29.87,NNW,346,2.0,8.0,43,0.00,,,0.00,923.0,WUHU216DAVISVP2,2013-05-30 20:21:00,
2013-05-30 13:26:00,81.3,55.3,29.87,WSW,249,6.0,12.0,41,0.00,,,0.00,919.0,WUHU216DAVISVP2,2013-05-30 20:26:00,
2013-05-30 13:31:00,81.1,54.5,29.87,SW,225,0.0,12.0,40,0.00,,,0.00,918.0,WUHU216DAVISVP2,2013-05-30 20:31:00,
2013-05-30 13:36:00,81.4,54.0,29.87,West,278,3.0,12.0,39,0.00,,,0.00,918.0,WUHU216DAVISVP2,2013-05-30 20:36:00,
2013-05-30 13:41:00,82.1,54.6,29.86,NNW,328,1.0,12.0,39,0.00,,,0.00,914.0,WUHU216DAVISVP2,2013-05-30 20:41:00,
2013-05-30 13:46:00,82.0,54.5,29.86,WNW,300,2.0,9.0,39,0.00,,,0.00,911.0,WUHU216DAVISVP2,2013-05-30 20:46:00,
2013-05-30 13:51:00,82.3,55.5,29.86,NW,304,5.0,9.0,40,0.00,,,0.00,905.0,WUHU216DAVISVP2,2013-05-30 20:51:00,
2013-05-30 13:56:00,83.0,56.1,29.86,WNW,298,5.0,8.0,40,0.00,,,0.00,900.0,WUHU216DAVISVP2,2013-05-30 20:56:00,
2013-05-30 14:01:00,83.2,55.6,29.86,WNW,296,4.0,8.0,39,0.00,,,0.00,895.0,WUHU216DAVISVP2,2013-05-30 21:01:00,
2013-05-30 14:06:00,83.5,55.9,29.86,NW,309,4.0,8.0,39,0.00,,,0.00,889.0,WUHU216DAVISVP2,2013-05-30 21:06:00,
2013-05-30 14:11:00,83.0,55.4,29.86,WSW,240,3.0,11.0,39,0.00,,,0.00,881.0,WUHU216DAVISVP2,2013-05-30 21:11:00,
2013-05-30 14:16:00,83.7,55.3,29.86,WNW,300,3.0,11.0,38,0.00,,,0.00,870.0,WUHU216DAVISVP2,2013-05-30 21:16:00,
2013-05-30 14:21:00,84.4,55.9,29.85,NW,317,4.0,11.0,38,0.00,,,0.00,867.0,WUHU216DAVISVP2,2013-05-30 21:21:00,
2013-05-30 14:26:00,84.6,53.8,29.85,WNW,298,8.0,13.0,35,0.00,,,0.00,872.0,WUHU216DAVISVP2,2013-05-30 21:26:00,
2013-05-30 14:31:00,83.8,54.7,29.85,WNW,294,7.0,13.0,37,0.00,,,0.00,870.0,WUHU216DAVISVP2,2013-05-30 21:31:00,
2013-05-30 14:36:00,83.7,53.9,29.85,WNW,291,5.0,13.0,36,0.00,,,0.00,853.0,WUHU216DAVISVP2,2013-05-30 21:36:00,
2013-05-30 14:41:00,83.9,55.6,29.85,NNE,15,5.0,13.0,38,0.00,,,0.00,846.0,WUHU216DAVISVP2,2013-05-30 21:41:00,
2013-05-30 14:46:00,84.4,55.3,29.84,WNW,287,2.0,10.0,37,0.00,,,0.00,844.0,WUHU216DAVISVP2,2013-05-30 21:46:00,
2013-05-30 14:51:00,84.2,55.8,29.84,WNW,294,8.0,10.0,38,0.00,,,0.00,833.0,WUHU216DAVISVP2,2013-05-30 21:51:00,
2013-05-30 14:56:00,84.4,56.0,29.84,North,349,4.0,11.0,38,0.00,,,0.00,816.0,WUHU216DAVISVP2,2013-05-30 21:56:00,
2013-05-30 15:01:00,85.0,55.8,29.84,WNW,296,8.0,11.0,37,0.00,,,0.00,812.0,WUHU216DAVISVP2,2013-05-30 22:01:00,
2013-05-30 15:06:00,85.0,55.0,29.84,NW,315,0.0,11.0,36,0.00,,,0.00,802.0,WUHU216DAVISVP2,2013-05-30 22:06:00,
2013-05-30 15:11:00,85.4,55.3,29.84,West,269,4.0,11.0,36,0.00,,,0.00,798.0,WUHU216DAVISVP2,2013-05-30 22:11:00,
2013-05-30 15:16:00,85.5,55.4,29.83,WNW,292,9.0,10.0,36,0.00,,,0.00,788.0,WUHU216DAVISVP2,2013-05-30 22:16:00,
2013-05-30 15:21:00,85.6,55.5,29.83,NW,313,5.0,10.0,36,0.00,,,0.00,777.0,WUHU216DAVISVP2,2013-05-30 22:21:00,
2013-05-30 15:26:00,86.1,55.9,29.83,NNW,331,8.0,10.0,36,0.00,,,0.00,765.0,WUHU216DAVISVP2,2013-05-30 22:26:00,
2013-05-30 15:31:00,86.5,55.5,29.83,WNW,301,7.0,10.0,35,0.00,,,0.00,756.0,WUHU216DAVISVP2,2013-05-30 22:31:00,
2013-05-30 15:36:00,86.4,56.2,29.83,West,270,8.0,10.0,36,0.00,,,0.00,742.0,WUHU216DAVISVP2,2013-05-30 22:36:00,
2013-05-30 15:41:00,86.0,55.8,29.83,WNW,299,3.0,12.0,36,0.00,,,0.00,733.0,WUHU216DAVISVP2,2013-05-30 22:41:00,
2013-05-30 15:46:00,86.5,55.5,29.83,NW,319,8.0,12.0,35,0.00,,,0.00,715.0,WUHU216DAVISVP2,2013-05-30 22:46:00,
2013-05-30 15:51:00,87.0,55.1,29.82,NNW,344,5.0,12.0,34,0.00,,,0.00,705.0,WUHU216DAVISVP2,2013-05-30 22:51:00,
2013-05-30 15:56:00,86.9,54.2,29.82,West,280,3.0,12.0,33,0.00,,,0.00,700.0,WUHU216DAVISVP2,2013-05-30 22:56:00,
2013-05-30 16:01:00,87.0,55.1,29.82,WNW,296,1.0,10.0,34,0.00,,,0.00,691.0,WUHU216DAVISVP2,2013-05-30 23:01:00,
2013-05-30 16:06:00,87.1,53.5,29.82,NW,319,8.0,9.0,32,0.00,,,0.00,677.0,WUHU216DAVISVP2,2013-05-30 23:06:00,
2013-05-30 16:11:00,86.8,53.4,29.82,WNW,299,9.0,12.0,32,0.00,,,0.00,664.0,WUHU216DAVISVP2,2013-05-30 23:11:00,
2013-05-30 16:16:00,86.6,54.1,29.81,WSW,250,4.0,12.0,33,0.00,,,0.00,652.0,WUHU216DAVISVP2,2013-05-30 23:16:00,
2013-05-30 16:21:00,86.9,53.4,29.81,NNW,339,3.0,12.0,32,0.00,,,0.00,643.0,WUHU216DAVISVP2,2013-05-30 23:21:00,
2013-05-30 16:26:00,87.0,53.5,29.81,WNW,285,7.0,12.0,32,0.00,,,0.00,629.0,WUHU216DAVISVP2,2013-05-30 23:26:00,
2013-05-30 16:31:00,86.9,53.4,29.81,NNW,328,4.0,11.0,32,0.00,,,0.00,610.0,WUHU216DAVISVP2,2013-05-30 23:31:00,
2013-05-30 16:36:00,87.1,54.4,29.81,NW,306,5.0,11.0,33,0.00,,,0.00,599.0,WUHU216DAVISVP2,2013-05-30 23:36:00,
2013-05-30 16:41:00,87.2,53.6,29.81,NW,321,5.0,12.0,32,0.00,,,0.00,584.0,WUHU216DAVISVP2,2013-05-30 23:41:00,
2013-05-30 16:46:00,87.3,52.8,29.81,WNW,293,7.0,13.0,31,0.00,,,0.00,573.0,WUHU216DAVISVP2,2013-05-30 23:46:00,
2013-05-30 16:51:00,87.4,52.0,29.81,NW,314,4.0,13.0,30,0.00,,,0.00,561.0,WUHU216DAVISVP2,2013-05-30 23:51:00,
2013-05-30 16:56:00,87.7,50.4,29.81,WNW,302,5.0,13.0,28,0.00,,,0.00,543.0,WUHU216DAVISVP2,2013-05-30 23:56:00,
2013-05-30 17:01:00,87.2,49.1,29.81,NW,311,7.0,14.0,27,0.00,,,0.00,531.0,WUHU216DAVISVP2,2013-05-31 00:01:00,
2013-05-30 17:06:00,87.2,48.1,29.81,NW,321,5.0,14.0,26,0.00,,,0.00,519.0,WUHU216DAVISVP2,2013-05-31 00:06:00,
2013-05-30 17:11:00,87.3,48.2,29.81,WNW,288,5.0,14.0,26,0.00,,,0.00,503.0,WUHU216DAVISVP2,2013-05-31 00:11:00,
2013-05-30 17:16:00,87.3,48.2,29.81,WNW,295,4.0,14.0,26,0.00,,,0.00,497.0,WUHU216DAVISVP2,2013-05-31 00:16:00,
2013-05-30 17:21:00,87.6,49.5,29.81,West,281,4.0,12.0,27,0.00,,,0.00,468.0,WUHU216DAVISVP2,2013-05-31 00:21:00,
2013-05-30 17:26:00,87.3,49.1,29.81,WNW,297,8.0,12.0,27,0.00,,,0.00,457.0,WUHU216DAVISVP2,2013-05-31 00:26:00,
2013-05-30 17:31:00,87.0,47.9,29.81,WNW,294,5.0,13.0,26,0.00,,,0.00,439.0,WUHU216DAVISVP2,2013-05-31 00:31:00,
2013-05-30 17:36:00,87.0,48.9,29.81,NW,308,7.0,13.0,27,0.00,,,0.00,425.0,WUHU216DAVISVP2,2013-05-31 00:36:00,
2013-05-30 17:41:00,87.1,49.0,29.81,NW,309,10.0,13.0,27,0.00,,,0.00,413.0,WUHU216DAVISVP2,2013-05-31 00:41:00,
2013-05-30 17:46:00,86.7,48.6,29.81,WNW,296,5.0,13.0,27,0.00,,,0.00,396.0,WUHU216DAVISVP2,2013-05-31 00:46:00,
2013-05-30 17:51:00,86.8,47.7,29.80,NW,324,7.0,12.0,26,0.00,,,0.00,380.0,WUHU216DAVISVP2,2013-05-31 00:51:00,
2013-05-30 17:56:00,86.9,47.8,29.80,WNW,296,6.0,12.0,26,0.00,,,0.00,366.0,WUHU216DAVISVP2,2013-05-31 00:56:00,
2013-05-30 18:01:00,87.0,47.9,29.80,NNW,329,7.0,12.0,26,0.00,,,0.00,350.0,WUHU216DAVISVP2,2013-05-31 01:01:00,
2013-05-30 18:06:00,87.1,48.0,29.80,WNW,300,6.0,12.0,26,0.00,,,0.00,332.0,WUHU216DAVISVP2,2013-05-31 01:06:00,
2013-05-30 18:11:00,87.1,48.0,29.80,WNW,298,7.0,12.0,26,0.00,,,0.00,318.0,WUHU216DAVISVP2,2013-05-31 01:11:00,
2013-05-30 18:16:00,86.9,48.8,29.80,West,273,6.0,11.0,27,0.00,,,0.00,302.0,WUHU216DAVISVP2,2013-05-31 01:16:00,
2013-05-30 18:21:00,86.7,47.6,29.80,WNW,301,3.0,11.0,26,0.00,,,0.00,287.0,WUHU216DAVISVP2,2013-05-31 01:21:00,
2013-05-30 18:26:00,86.4,47.4,29.80,NW,311,7.0,11.0,26,0.00,,,0.00,267.0,WUHU216DAVISVP2,2013-05-31 01:26:00,
2013-05-30 18:31:00,86.5,49.4,29.80,NW,323,6.0,11.0,28,0.00,,,0.00,251.0,WUHU216DAVISVP2,2013-05-31 01:31:00,
2013-05-30 18:36:00,86.2,49.2,29.80,NW,318,7.0,12.0,28,0.00,,,0.00,230.0,WUHU216DAVISVP2,2013-05-31 01:36:00,
2013-05-30 18:41:00,86.0,49.0,29.80,NW,306,10.0,12.0,28,0.00,,,0.00,221.0,WUHU216DAVISVP2,2013-05-31 01:41:00,
2013-05-30 18:46:00,85.8,47.9,29.80,WNW,285,2.0,12.0,27,0.00,,,0.00,204.0,WUHU216DAVISVP2,2013-05-31 01:46:00,
2013-05-30 18:51:00,85.8,47.9,29.81,WNW,299,7.0,12.0,27,0.00,,,0.00,185.0,WUHU216DAVISVP2,2013-05-31 01:51:00,
2013-05-30 18:56:00,85.6,46.7,29.81,WNW,303,5.0,11.0,26,0.00,,,0.00,165.0,WUHU216DAVISVP2,2013-05-31 01:56:00,
2013-05-30 19:01:00,85.4,44.5,29.81,WNW,298,6.0,11.0,24,0.00,,,0.00,146.0,WUHU216DAVISVP2,2013-05-31 02:01:00,
2013-05-30 19:06:00,85.1,44.2,29.81,West,272,7.0,11.0,24,0.00,,,0.00,128.0,WUHU216DAVISVP2,2013-05-31 02:06:00,
2013-05-30 19:11:00,84.8,45.0,29.81,NW,317,6.0,11.0,25,0.00,,,0.00,116.0,WUHU216DAVISVP2,2013-05-31 02:11:00,
2013-05-30 19:16:00,84.6,44.9,29.81,NW,309,7.0,11.0,25,0.00,,,0.00,98.0,WUHU216DAVISVP2,2013-05-31 02:16:00,
2013-05-30 19:21:00,84.3,45.7,29.81,WNW,288,7.0,10.0,26,0.00,,,0.00,83.0,WUHU216DAVISVP2,2013-05-31 02:21:00,
2013-05-30 19:26:00,83.9,45.3,29.81,WNW,294,6.0,10.0,26,0.00,,,0.00,69.0,WUHU216DAVISVP2,2013-05-31 02:26:00,
2013-05-30 19:31:00,83.7,46.1,29.81,WNW,298,4.0,10.0,27,0.00,,,0.00,56.0,WUHU216DAVISVP2,2013-05-31 02:31:00,
2013-05-30 19:36:00,83.4,45.8,29.81,NW,306,6.0,10.0,27,0.00,,,0.00,44.0,WUHU216DAVISVP2,2013-05-31 02:36:00,
2013-05-30 19:41:00,83.0,46.4,29.81,WNW,295,7.0,9.0,28,0.00,,,0.00,35.0,WUHU216DAVISVP2,2013-05-31 02:41:00,
2013-05-30 19:46:00,82.4,45.9,29.82,NW,307,6.0,9.0,28,0.00,,,0.00,26.0,WUHU216DAVISVP2,2013-05-31 02:46:00,
2013-05-30 19:51:00,81.9,45.6,29.82,WNW,299,3.0,9.0,28,0.00,,,0.00,18.0,WUHU216DAVISVP2,2013-05-31 02:51:00,
2013-05-30 19:56:00,81.4,45.0,29.82,NW,304,4.0,9.0,28,0.00,,,0.00,14.0,WUHU216DAVISVP2,2013-05-31 02:56:00,
2013-05-30 20:01:00,81.0,44.8,29.82,NW,317,5.0,9.0,28,0.00,,,0.00,11.0,WUHU216DAVISVP2,2013-05-31 03:01:00,
2013-05-30 20:06:00,80.4,44.2,29.82,WNW,301,4.0,9.0,28,0.00,,,0.00,5.0,WUHU216DAVISVP2,2013-05-31 03:06:00,
2013-05-30 20:11:00,79.9,43.7,29.82,WNW,302,4.0,8.0,28,0.00,,,0.00,0.0,WUHU216DAVISVP2,2013-05-31 03:11:00,
2013-05-30 20:16:00,79.4,42.4,29.82,NW,306,6.0,8.0,27,0.00,,,0.00,0.0,WUHU216DAVISVP2,2013-05-31 03:16:00,
2013-05-30 20:21:00,79.0,42.2,29.82,NW,321,5.0,8.0,27,0.00,,,0.00,0.0,WUHU216DAVISVP2,2013-05-31 03:21:00,
2013-05-30 20:26:00,78.7,42.7,29.83,NW,313,5.0,8.0,28,0.00,,,0.00,0.0,WUHU216DAVISVP2,2013-05-31 03:26:00,
2013-05-30 20:31:00,78.2,42.3,29.83,WNW,302,4.0,8.0,28,0.00,,,0.00,0.0,WUHU216DAVISVP2,2013-05-31 03:31:00,
2013-05-30 20:36:00,77.6,41.8,29.83,WNW,286,4.0,8.0,28,0.00,,,0.00,0.0,WUHU216DAVISVP2,2013-05-31 03:36:00,
2013-05-30 20:41:00,77.3,41.5,29.83,NW,311,6.0,8.0,28,0.00,,,0.00,0.0,WUHU216DAVISVP2,2013-05-31 03:41:00,
2013-05-30 20:46:00,77.0,42.2,29.83,NW,308,2.0,7.0,29,0.00,,,0.00,0.0,WUHU216DAVISVP2,2013-05-31 03:46:00,
2013-05-30 20:51:00,76.6,42.0,29.83,WNW,300,3.0,7.0,29,0.00,,,0.00,0.0,WUHU216DAVISVP2,2013-05-31 03:51:00,
2013-05-30 20:56:00,76.2,42.5,29.84,WNW,284,2.0,6.0,30,0.00,,,0.00,0.0,WUHU216DAVISVP2,2013-05-31 03:56:00,
2013-05-30 21:01:00,76.0,42.3,29.84,WNW,302,3.0,6.0,30,0.00,,,0.00,0.0,WUHU216DAVISVP2,2013-05-31 04:01:00,
2013-05-30 21:02:00,75.9,42.2,29.84,West,278,3.0,6.0,30,0.00,,,0.00,0.0,WUHU216DAVISVP2,2013-05-31 04:02:00,
2013-05-30 21:07:00,75.4,43.5,29.84,WNW,284,2.0,5.0,32,0.00,,,0.00,0.0,WUHU216DAVISVP2,2013-05-31 04:07:00,
2013-05-30 21:12:00,74.8,44.4,29.84,WNW,284,3.0,5.0,34,0.00,,,0.00,0.0,WUHU216DAVISVP2,2013-05-31 04:12:00,
2013-05-30 21:17:00,74.3,44.7,29.84,WNW,284,1.0,5.0,35,0.00,,,0.00,0.0,WUHU216DAVISVP2,2013-05-31 04:17:00,
2013-05-30 21:22:00,73.8,44.3,29.84,WNW,284,2.0,5.0,35,0.00,,,0.00,0.0,WUHU216DAVISVP2,2013-05-31 04:22:00,
2013-05-30 21:27:00,73.6,44.8,29.85,WNW,286,1.0,5.0,36,0.00,,,0.00,0.0,WUHU216DAVISVP2,2013-05-31 04:27:00,
2013-05-30 21:32:00,73.4,44.7,29.85,WNW,286,3.0,5.0,36,0.00,,,0.00,0.0,WUHU216DAVISVP2,2013-05-31 04:32:00,
2013-05-30 21:37:00,73.3,44.6,29.85,WNW,302,1.0,5.0,36,0.00,,,0.00,0.0,WUHU216DAVISVP2,2013-05-31 04:37:00,
2013-05-30 21:42:00,73.2,45.2,29.85,WNW,302,2.0,5.0,37,0.00,,,0.00,0.0,WUHU216DAVISVP2,2013-05-31 04:42:00,
2013-05-30 21:47:00,73.0,45.0,29.85,WNW,302,2.0,5.0,37,0.00,,,0.00,0.0,WUHU216DAVISVP2,2013-05-31 04:47:00,
2013-05-30 21:52:00,72.9,44.9,29.86,WNW,302,3.0,5.0,37,0.00,,,0.00,0.0,WUHU216DAVISVP2,2013-05-31 04:52:00,
2013-05-30 21:57:00,72.7,45.6,29.86,WNW,302,2.0,4.0,38,0.00,,,0.00,0.0,WUHU216DAVISVP2,2013-05-31 04:57:00,
2013-05-30 22:02:00,72.5,46.1,29.86,WNW,302,0.0,4.0,39,0.00,,,0.00,0.0,WUHU216DAVISVP2,2013-05-31 05:02:00,
2013-05-30 22:07:00,72.1,46.4,29.86,WNW,302,0.0,4.0,40,0.00,,,0.00,0.0,WUHU216DAVISVP2,2013-05-31 05:07:00,
2013-05-30 22:12:00,71.9,46.8,29.86,WNW,302,1.0,4.0,41,0.00,,,0.00,0.0,WUHU216DAVISVP2,2013-05-31 05:12:00,
2013-05-30 22:17:00,71.5,46.6,29.87,WNW,302,0.0,4.0,41,0.00,,,0.00,0.0,WUHU216DAVISVP2,2013-05-31 05:17:00,
2013-05-30 22:22:00,71.0,47.9,29.87,WNW,302,0.0,3.0,44,0.00,,,0.00,0.0,WUHU216DAVISVP2,2013-05-31 05:22:00,
2013-05-30 22:27:00,70.3,47.9,29.87,WNW,302,0.0,3.0,45,0.00,,,0.00,0.0,WUHU216DAVISVP2,2013-05-31 05:27:00,
2013-05-30 22:32:00,70.0,47.6,29.87,WNW,302,0.0,2.0,45,0.00,,,0.00,0.0,WUHU216DAVISVP2,2013-05-31 05:32:00,
2013-05-30 22:37:00,69.4,48.3,29.87,WNW,302,0.0,1.0,47,0.00,,,0.00,0.0,WUHU216DAVISVP2,2013-05-31 05:37:00,
2013-05-30 22:42:00,68.6,48.7,29.87,WNW,302,0.0,1.0,49,0.00,,,0.00,0.0,WUHU216DAVISVP2,2013-05-31 05:42:00,
2013-05-30 22:47:00,68.2,48.3,29.87,WNW,302,0.0,0.0,49,0.00,,,0.00,0.0,WUHU216DAVISVP2,2013-05-31 05:47:00,
2013-05-30 22:52:00,67.9,47.5,29.87,WNW,302,0.0,0.0,48,0.00,,,0.00,0.0,WUHU216DAVISVP2,2013-05-31 05:52:00,
2013-05-30 22:57:00,67.9,48.6,29.88,WNW,302,0.0,0.0,50,0.00,,,0.00,0.0,WUHU216DAVISVP2,2013-05-31 05:57:00,
2013-05-30 23:02:00,68.0,48.2,29.88,WNW,302,0.0,1.0,49,0.00,,,0.00,0.0,WUHU216DAVISVP2,2013-05-31 06:02:00,
2013-05-30 23:07:00,68.3,47.8,29.87,WNW,302,0.0,2.0,48,0.00,,,0.00,0.0,WUHU216DAVISVP2,2013-05-31 06:07:00,
2013-05-30 23:12:00,68.5,48.0,29.88,WNW,302,1.0,2.0,48,0.00,,,0.00,0.0,WUHU216DAVISVP2,2013-05-31 06:12:00,
2013-05-30 23:17:00,68.6,48.1,29.87,WNW,302,1.0,3.0,48,0.00,,,0.00,0.0,WUHU216DAVISVP2,2013-05-31 06:17:00,
2013-05-30 23:22:00,68.6,48.1,29.87,WNW,302,2.0,3.0,48,0.00,,,0.00,0.0,WUHU216DAVISVP2,2013-05-31 06:22:00,
2013-05-30 23:27:00,68.5,48.6,29.87,WNW,302,2.0,4.0,49,0.00,,,0.00,0.0,WUHU216DAVISVP2,2013-05-31 06:27:00,
2013-05-30 23:32:00,68.4,49.1,29.87,WNW,302,3.0,5.0,50,0.00,,,0.00,0.0,WUHU216DAVISVP2,2013-05-31 06:32:00,
2013-05-30 23:37:00,68.2,48.9,29.87,WNW,302,0.0,5.0,50,0.00,,,0.00,0.0,WUHU216DAVISVP2,2013-05-31 06:37:00,
2013-05-30 23:42:00,68.0,49.3,29.87,WNW,302,0.0,5.0,51,0.00,,,0.00,0.0,WUHU216DAVISVP2,2013-05-31 06:42:00,
2013-05-30 23:47:00,67.8,49.1,29.87,WNW,302,0.0,5.0,51,0.00,,,0.00,0.0,WUHU216DAVISVP2,2013-05-31 06:47:00,
2013-05-30 23:52:00,67.6,48.9,29.87,WNW,302,1.0,4.0,51,0.00,,,0.00,0.0,WUHU216DAVISVP2,2013-05-31 06:52:00,
2013-05-30 23:57:00,67.5,48.8,29.88,WNW,302,0.0,4.0,51,0.00,,,0.00,0.0,WUHU216DAVISVP2,2013-05-31 06:57:00,